Flag for U.S.A. Weather past 2 weeks in State College, Pennsylvania, U.S.A.

Now
50 °F

Overcast.


Feels Like: 47 °F
Forecast: 42 / 58 °F
Wind: 6 mph from Northwest

Location: University Park Airport

Current Time: Oct 24, 2014 at 4:05:20 AM

Latest Report: Oct 24, 2014 at 3:35 AM


Visibility: 10 mi

Pressure: 29.98 "Hg

Humidity: 76%

Dew point: 42 °F

Location of State CollegeLocation

Historic Weather in State College — Graph

°F

State College temperature yesterday

Maximum temperature yesterday: 59 °F (at 2:53 PM)
Minimum temperature yesterday: 47 °F (at 12:15 AM)
Average temperature yesterday: 51 °F

Past Weeks' High & Low Weather Summary

 TemperatureHumidityPressure
High72 °F (Oct 14, 1:53 PM)100% (Oct 11, 6:53 AM)30.31 "Hg (Oct 11, 6:53 AM)
Low36 °F (Oct 12, 6:53 AM)38% (Oct 19, 3:53 PM)29.59 "Hg (Oct 18, 4:55 AM)
Average52 °F80%29.96 "Hg
* Reported Oct 9 2:15 AM — Oct 24 2:55 AM, State College, Weather by CustomWeather, © 2014

Note: Actual official high and low records may vary slightly from our data, if they occured in-between our weather recording intervals... More about our weather records

Advertising

State College weather history for previous 24 hours

 ConditionsComfort  
Time TempWeatherWind HumidityBarometerVisibility
2:55 AM
Oct 24
48 °FPassing clouds.6 mph80%29.98 "Hg10 mi
2:15 AM47 °FClear.No wind82%29.96 "Hg10 mi
1:55 AM45 °FClear.3 mph86%29.97 "Hg10 mi
1:35 AM49 °FClear.No wind77%29.97 "Hg10 mi
1:15 AM50 °FClear.3 mph73%29.97 "Hg10 mi
12:55 AM49 °FClear.3 mph73%29.98 "Hg10 mi
12:15 AM50 °FPartly cloudy.No wind68%29.98 "Hg10 mi
11:55 PM
Oct 23
51 °FPassing clouds.9 mph67%29.98 "Hg10 mi
11:15 PM52 °FOvercast.10 mph63%29.98 "Hg10 mi
10:55 PM52 °FOvercast.7 mph62%29.98 "Hg10 mi
10:35 PM53 °FPartly cloudy.10 mph59%29.98 "Hg10 mi
10:15 PM53 °FPassing clouds.7 mph59%29.98 "Hg10 mi
9:55 PM53 °FPartly cloudy.7 mph57%29.98 "Hg10 mi
8:53 PM55 °FMostly cloudy.8 mph51%29.97 "Hg10 mi
7:53 PM57 °FOvercast.14 mph51%29.97 "Hg10 mi
6:53 PM59 °FPartly sunny.12 mph48%29.93 "Hg10 mi
5:53 PM59 °FPartly sunny.12 mph48%29.92 "Hg10 mi
4:53 PM59 °FOvercast.14 mph51%29.92 "Hg10 mi
3:53 PM59 °FOvercast.14 mph55%29.92 "Hg10 mi
2:53 PM59 °FOvercast.16 mph51%29.92 "Hg10 mi
1:53 PM57 °FPartly sunny.12 mph59%29.93 "Hg10 mi
12:53 PM55 °FPartly sunny.14 mph63%29.94 "Hg10 mi
11:53 AM52 °FOvercast.14 mph72%29.98 "Hg10 mi
10:53 AM50 °FOvercast.14 mph71%29.99 "Hg10 mi
9:53 AM48 °FOvercast.9 mph76%29.99 "Hg10 mi
8:53 AM48 °FOvercast.9 mph71%29.99 "Hg10 mi
7:53 AM48 °FOvercast.9 mph71%29.98 "Hg10 mi
6:53 AM48 °FOvercast.5 mph76%29.98 "Hg10 mi
5:53 AM48 °FOvercast.9 mph76%29.98 "Hg10 mi
5:35 AM48 °FOvercast.7 mph78%29.98 "Hg10 mi
5:15 AM47 °FOvercast.10 mph79%29.98 "Hg10 mi
4:55 AM47 °FOvercast.10 mph80%29.98 "Hg10 mi
4:35 AM47 °FOvercast.9 mph79%29.99 "Hg10 mi
4:15 AM47 °FOvercast.7 mph79%29.99 "Hg10 mi
Weather by CustomWeather, © 2014

See weather overviewHow to use our weather pages